SCP
0 0 0 0 0 0 0 0 0 0 0 0 0 0 0 0 0 0 0 0 0 0 0 0 0 0 0 0 0 0 0 0
0 0 0 0 0 0 0 0 0 0 0 0 0 0 0 0 0 0 0 0 0 0 0 0 0 -0 -0 -0 -0 -0 -0 -0
0 0 0 0 0 0 0 0 0 0 0 0 0 0 0 0 0 0 0 0 0 0 0 0 0 0 -0 -0 -0 -0 -0 -0
0 0 0 0 0 0 0 0 0 0 0 0 0 0 0 0 0 0 0 0 0 0 0 0 0 -0 -0 -0 -0 -0 -0 -0
0 0 0 0 0 0 0 0 0 0 0 0 0 0 0 0 0 0 0 0 0 0 0 -0 -0 -0 -0 -0 -0 -0 -0 0
0 0 0 0 0 0 0 0 0 0 0 0 0 0 0 0 0 0 0 0 0 0 0 -0 -0 -0 -0 0 -0 -0 0 0
0 0 0 0 0 0 0 0 0 0 0 0 0 0 0 0 0 0 0 0 0 0 0 -0 -0 -0 0 0 0 0 0 0
0 0 0 0 0 0 0 0 0 0 0 0 0 0 0 0 0 0 0 0 0 0 0 0 -0 -0 -0 0 0 0 0 0
0 0 0 0 0 0 0 0 0 0 0 0 0 0 0 0 0 0 0 0 0 0 0 0 0 -0 0 0 0 0 0 0
0 0 0 0 0 0 0 0 0 0 0 0 0 0 0 0 0 0 0 0 0 0 0 0 0 0 0 0 0 0 0 0
0 0 0 0 0 0 0 0 0 0 0 0 0 0 0 0 0 0 0 0 0 0 0 0 0 0 0 0 0 0 0 0
0 0 0 0 0 0 0 0 0 0 0 0 0 0 0 0 0 0 0 0 0 0 0 0 0 0 -0 0 0 0 0 0
0 0 0 0 0 0 0 0 0 0 0 0 0 0 0 0 0 0 0 0 0 0 0 0 0 0 0 -0 -0 0 0 0
0 0 0 0 0 0 0 0 0 0 0 0 0 0 0 0 0 0 0 0 0 0 0 0 0 0 -0 -0 -0 0 0 0
0 0 0 0 0 0 0 0 0 0 0 0 0 0 0 0 0 0 0 0 0 0 0 0 0 0 0 0 0 0 0 0
0 0 0 0 0 0 0 0 0 0 0 0 0 0 0 0 0 0 0 0 0 0 0 0 0 0 -0 -0 -0 -0 -0 -0
0 0 0 0 0 0 0 0 0 0 0 0 0 0 0 0 0 0 0 0 0 0 0 0 0 -0 -0 -0 -0 0 0 0
0 0 0 0 0 0 0 0 0 0 0 0 0 0 0 0 0 0 0 0 0 0 0 0 0 0 -0 0 0 0 0 0
0 0 0 0 0 0 0 0 0 0 0 0 0 0 0 0 0 0 0 0 0 0 0 0 0 0 0 0 0 0 0 0
0 0 0 0 0 0 0 0 0 0 0 0 0 0 0 0 0 0 0 0 0 0 0 0 0 0 0 0 0 0 0 0
Wind_Speed_500mb
24 15 12 9 7 6 7 6 5 3 4 7 10 14 18 22 25 27 30 32 35 36 36 38 42 47 53 58 61 65 65 66
28 24 20 16 13 14 13 10 7 4 4 8 13 17 20 24 28 31 33 35 37 40 44 51 59 64 69 73 76 79 82 82
33 29 26 22 20 21 20 17 11 8 9 12 17 21 25 29 32 35 37 39 41 46 51 57 63 69 76 82 85 90 92 91
42 42 38 31 28 28 26 20 16 14 16 18 22 26 33 37 40 43 45 46 50 58 65 69 75 81 84 87 90 91 92 94
48 49 43 37 32 33 29 24 22 23 25 27 30 36 42 46 49 52 52 53 58 65 71 77 81 82 82 84 87 90 93 95
41 44 48 43 38 37 35 31 29 31 35 36 40 43 46 50 54 56 55 58 64 69 73 78 81 83 86 88 92 95 97 98
34 45 49 45 39 40 38 34 35 39 43 47 46 44 47 56 59 61 59 65 70 74 79 83 83 83 85 85 88 92 93 95
40 46 47 42 36 39 37 41 46 48 50 50 48 49 52 58 64 63 65 71 74 78 82 86 87 87 88 84 84 87 87 86
38 41 40 37 38 38 43 51 56 57 52 48 49 54 58 63 66 63 67 70 74 80 84 87 87 85 84 82 79 82 80 78
26 30 30 29 32 40 48 57 61 57 51 50 52 58 61 67 64 63 66 70 76 81 85 86 84 80 79 77 76 77 78 74
34 33 32 34 37 41 47 56 60 61 58 57 59 61 63 63 61 63 67 72 76 80 79 79 81 75 74 69 65 70 74 71
38 41 43 37 38 41 44 54 63 65 63 61 59 60 59 62 61 63 66 70 74 79 78 74 72 74 69 61 56 66 73 76
49 52 46 43 48 51 53 57 64 65 62 58 56 58 62 63 62 60 64 68 73 77 79 76 72 67 64 56 53 57 65 78
53 60 57 55 57 58 60 63 65 63 60 58 57 60 59 60 59 60 60 64 70 74 76 76 71 71 68 61 63 64 66 71
49 55 60 62 60 60 66 66 64 61 59 59 61 62 55 57 56 57 57 61 64 67 71 73 70 68 64 71 76 74 74 78
50 53 56 54 57 64 66 62 61 61 60 60 62 56 54 54 53 52 53 56 58 59 58 58 61 58 56 61 67 69 67 70
46 46 50 56 60 62 60 60 62 64 62 62 59 53 54 54 54 44 47 49 47 48 38 45 43 45 50 55 56 59 59 57
44 46 51 53 53 54 58 61 64 64 63 59 54 54 53 52 53 59 42 40 45 43 40 42 38 44 45 48 50 54 50 49
46 47 48 48 49 55 58 62 62 62 59 56 54 54 52 51 52 51 51 53 38 39 42 40 45 40 40 45 47 49 49 52
44 46 47 49 45 52 59 60 58 56 54 54 55 52 52 51 50 47 46 47 46 37 37 37 40 34 34 38 40 46 49 52
Wind_Direction_500mb
196 201 201 199 207 206 195 181 154 105 42 15 7 4 359 353 345 343 341 339 335 334 334 333 332 329 328 326 324 321 319 316
212 217 211 217 217 216 212 209 208 222 294 331 336 334 335 331 330 328 328 326 325 326 327 328 327 325 323 322 320 318 316 313
229 227 228 230 230 225 220 218 226 254 286 300 311 318 320 323 325 324 325 324 323 323 322 322 321 320 320 319 319 318 316 314
235 235 233 231 231 228 222 223 238 256 274 292 302 312 318 320 321 321 320 320 320 321 323 322 322 321 320 318 317 315 313 312
238 238 237 233 235 228 222 229 244 261 274 286 297 306 311 314 316 316 316 316 318 320 321 321 320 318 317 315 314 312 310 307
241 242 236 231 232 223 223 236 253 265 274 280 286 293 301 307 310 310 310 312 315 316 317 318 318 318 317 315 314 312 309 306
252 245 233 232 232 227 232 244 260 268 269 271 275 284 294 303 307 308 308 312 315 317 318 319 318 318 315 314 314 311 307 306
246 242 229 229 233 235 245 254 262 266 267 269 275 285 291 299 304 304 308 312 315 317 318 318 319 319 318 318 313 310 308 307
237 229 226 232 242 248 254 263 267 266 265 269 278 283 287 295 298 300 306 310 314 316 317 318 321 321 319 316 313 309 308 308
224 217 217 231 248 260 265 266 267 261 261 268 275 277 283 289 292 298 305 311 315 317 318 319 319 321 320 318 313 311 311 312
219 221 238 255 269 269 269 268 265 260 257 261 266 273 283 289 291 300 307 312 316 316 316 318 321 323 320 317 315 311 313 317
234 245 259 267 266 271 276 273 261 254 255 260 268 279 286 289 292 300 308 313 316 315 316 318 323 324 323 321 314 312 316 312
254 258 266 267 267 270 275 270 261 257 259 266 275 282 288 288 294 302 309 313 314 314 316 322 326 328 328 323 314 311 309 309
264 267 265 267 266 266 270 264 260 260 265 271 278 284 286 285 293 303 310 313 314 314 318 321 328 332 334 331 328 318 312 312
270 269 268 269 266 267 264 261 261 265 270 275 281 285 282 285 295 304 311 312 313 315 322 327 329 329 335 336 326 318 319 323
275 277 275 266 264 263 261 263 267 271 275 280 283 283 281 287 296 305 310 311 316 319 318 317 320 329 326 321 323 322 316 308
277 274 266 263 262 261 263 267 269 273 278 281 281 279 282 289 296 303 308 311 310 310 306 311 314 321 322 324 326 320 322 323
273 268 267 264 262 264 267 269 271 276 279 279 277 278 283 289 298 305 307 305 305 307 311 317 318 324 326 327 330 335 337 338
268 268 268 269 268 268 270 271 275 278 277 275 274 277 283 291 297 300 306 307 307 305 312 319 320 329 330 334 334 335 347 353
268 271 272 272 273 272 270 272 273 272 272 273 274 277 282 287 291 295 298 301 305 307 303 313 316 328 337 334 338 344 349 353
Wind_Speed_850mb
24 15 12 9 7 6 7 6 5 3 4 7 10 14 18 22 25 27 30 32 35 36 36 38 42 47 53 58 61 65 65 66
28 24 20 16 13 14 13 10 7 4 4 8 13 17 20 24 28 31 33 35 37 40 44 51 59 64 69 73 76 79 82 82
33 29 26 22 20 21 20 17 11 8 9 12 17 21 25 29 32 35 37 39 41 46 51 57 63 69 76 82 85 90 92 91
42 42 38 31 28 28 26 20 16 14 16 18 22 26 33 37 40 43 45 46 50 58 65 69 75 81 84 87 90 91 92 94
48 49 43 37 32 33 29 24 22 23 25 27 30 36 42 46 49 52 52 53 58 65 71 77 81 82 82 84 87 90 93 95
41 44 48 43 38 37 35 31 29 31 35 36 40 43 46 50 54 56 55 58 64 69 73 78 81 83 86 88 92 95 97 98
34 45 49 45 39 40 38 34 35 39 43 47 46 44 47 56 59 61 59 65 70 74 79 83 83 83 85 85 88 92 93 95
40 46 47 42 36 39 37 41 46 48 50 50 48 49 52 58 64 63 65 71 74 78 82 86 87 87 88 84 84 87 87 86
38 41 40 37 38 38 43 51 56 57 52 48 49 54 58 63 66 63 67 70 74 80 84 87 87 85 84 82 79 82 80 78
26 30 30 29 32 40 48 57 61 57 51 50 52 58 61 67 64 63 66 70 76 81 85 86 84 80 79 77 76 77 78 74
34 33 32 34 37 41 47 56 60 61 58 57 59 61 63 63 61 63 67 72 76 80 79 79 81 75 74 69 65 70 74 71
38 41 43 37 38 41 44 54 63 65 63 61 59 60 59 62 61 63 66 70 74 79 78 74 72 74 69 61 56 66 73 76
49 52 46 43 48 51 53 57 64 65 62 58 56 58 62 63 62 60 64 68 73 77 79 76 72 67 64 56 53 57 65 78
53 60 57 55 57 58 60 63 65 63 60 58 57 60 59 60 59 60 60 64 70 74 76 76 71 71 68 61 63 64 66 71
49 55 60 62 60 60 66 66 64 61 59 59 61 62 55 57 56 57 57 61 64 67 71 73 70 68 64 71 76 74 74 78
50 53 56 54 57 64 66 62 61 61 60 60 62 56 54 54 53 52 53 56 58 59 58 58 61 58 56 61 67 69 67 70
46 46 50 56 60 62 60 60 62 64 62 62 59 53 54 54 54 44 47 49 47 48 38 45 43 45 50 55 56 59 59 57
44 46 51 53 53 54 58 61 64 64 63 59 54 54 53 52 53 59 42 40 45 43 40 42 38 44 45 48 50 54 50 49
46 47 48 48 49 55 58 62 62 62 59 56 54 54 52 51 52 51 51 53 38 39 42 40 45 40 40 45 47 49 49 52
44 46 47 49 45 52 59 60 58 56 54 54 55 52 52 51 50 47 46 47 46 37 37 37 40 34 34 38 40 46 49 52
Wind_Direction_850mb
196 201 201 199 207 206 195 181 154 105 42 15 7 4 359 353 345 343 341 339 335 334 334 333 332 329 328 326 324 321 319 316
212 217 211 217 217 216 212 209 208 222 294 331 336 334 335 331 330 328 328 326 325 326 327 328 327 325 323 322 320 318 316 313
229 227 228 230 230 225 220 218 226 254 286 300 311 318 320 323 325 324 325 324 323 323 322 322 321 320 320 319 319 318 316 314
235 235 233 231 231 228 222 223 238 256 274 292 302 312 318 320 321 321 320 320 320 321 323 322 322 321 320 318 317 315 313 312
238 238 237 233 235 228 222 229 244 261 274 286 297 306 311 314 316 316 316 316 318 320 321 321 320 318 317 315 314 312 310 307
241 242 236 231 232 223 223 236 253 265 274 280 286 293 301 307 310 310 310 312 315 316 317 318 318 318 317 315 314 312 309 306
252 245 233 232 232 227 232 244 260 268 269 271 275 284 294 303 307 308 308 312 315 317 318 319 318 318 315 314 314 311 307 306
246 242 229 229 233 235 245 254 262 266 267 269 275 285 291 299 304 304 308 312 315 317 318 318 319 319 318 318 313 310 308 307
237 229 226 232 242 248 254 263 267 266 265 269 278 283 287 295 298 300 306 310 314 316 317 318 321 321 319 316 313 309 308 308
224 217 217 231 248 260 265 266 267 261 261 268 275 277 283 289 292 298 305 311 315 317 318 319 319 321 320 318 313 311 311 312
219 221 238 255 269 269 269 268 265 260 257 261 266 273 283 289 291 300 307 312 316 316 316 318 321 323 320 317 315 311 313 317
234 245 259 267 266 271 276 273 261 254 255 260 268 279 286 289 292 300 308 313 316 315 316 318 323 324 323 321 314 312 316 312
254 258 266 267 267 270 275 270 261 257 259 266 275 282 288 288 294 302 309 313 314 314 316 322 326 328 328 323 314 311 309 309
264 267 265 267 266 266 270 264 260 260 265 271 278 284 286 285 293 303 310 313 314 314 318 321 328 332 334 331 328 318 312 312
270 269 268 269 266 267 264 261 261 265 270 275 281 285 282 285 295 304 311 312 313 315 322 327 329 329 335 336 326 318 319 323
275 277 275 266 264 263 261 263 267 271 275 280 283 283 281 287 296 305 310 311 316 319 318 317 320 329 326 321 323 322 316 308
277 274 266 263 262 261 263 267 269 273 278 281 281 279 282 289 296 303 308 311 310 310 306 311 314 321 322 324 326 320 322 323
273 268 267 264 262 264 267 269 271 276 279 279 277 278 283 289 298 305 307 305 305 307 311 317 318 324 326 327 330 335 337 338
268 268 268 269 268 268 270 271 275 278 277 275 274 277 283 291 297 300 306 307 307 305 312 319 320 329 330 334 334 335 347 353
268 271 272 272 273 272 270 272 273 272 272 273 274 277 282 287 291 295 298 301 305 307 303 313 316 328 337 334 338 344 349 353